Regional Weather Roundup
Issued by NWS Charleston, SC

Current Version | Previous Version | Text Only | Print | Product List | Glossary Off
Versions: 1 2 3 4 5 6 7 8 9 10 11 12 13 14 15 16 17 18 19 20 21 22 23 24 25 26 27 28 29 30 31 32 33 34 35 36 37 38 39 40 41 42 43 44 45 46 47 48 49 50

000
ASUS42 KCHS 090127
RWRCHS

REGIONAL WEATHER ROUNDUP
NATIONAL WEATHER SERVICE CHARLESTON SC
800 PM EST MON FEB 08 2016

NOTE: "FAIR" INDICATES FEW OR NO CLOUDS BELOW 12,000 FEET WITH NO
SIGNIFICANT WEATHER AND/OR OBSTRUCTIONS TO VISIBILITY.

NOT ALL STATIONS ARE QUALITY CONTROLLED BY THE NATIONAL
WEATHER SERVICE. USE DATA WITH CAUTION...ESPECIALLY
DEWPOINT OBSERVATIONS.

NOTICE: OBSERVATIONS FOR THE SAVANNAH-HILTON HEAD INTERNATIONAL AIRPORT
/KSAV/ HAVE BEEN TEMPORARILY REMOVED DUE TO AN ERRONEOUS TEMPERATURE
SENSOR. THE OBSERVATION WILL BE REINTRODUCED ONCE REPAIRS ARE COMPLETE.

SCZ027-030-031-034>040-042>050-090200-
...SOUTHEAST SOUTH CAROLINA...

CITY           SKY/WX    TMP DP  RH WIND       PRES   REMARKS
N CHARLESTON   LGT RAIN  47  42  83 SW9       29.74F
WATERFRONT PRK   N/A     48  45  89 NW6       29.63R
MOUNT PLEASANT FAIR      46  45  93 SW5       29.75F
JOHNS ISLAND   CLOUDY    48  43  81 W7        29.75F
PINOPOLIS        N/A     30   7  37 W9        29.68S WCI  22
MONCKS CORNER  DRIZZLE   43  39  87 SW5       29.74F
SUMMERVILLE    DRIZZLE   45  45 100 CALM      29.76S
BEAUFORT MCAS  LGT RAIN  47  42  83 SW12      29.76F
BEAUFORT ARPT  RAIN      46  41  81 W15G22    29.77S
HILTON HEAD IS LGT RAIN  48  43  81 W12G23    29.79R
WALTERBORO     CLOUDY    46  45  93 SW5       29.76F
ALLENDALE      CLOUDY    46  45  93 CALM      29.74S

...SOUTHERN MIDLANDS AND PEE DEE...

CITY           SKY/WX    TMP DP  RH WIND       PRES   REMARKS
GEORGETOWN     NOT AVBL
KINGSTREE      NOT AVBL
ORANGEBURG     PTCLDY    44  41  89 SW5       29.73S
BARNWELL       FAIR      45  43  93 CALM      29.74S
AIKEN          FAIR      39  32  75 SW6       29.74S WCI  35
MANNING        FAIR      45  41  87 CALM      29.72F
COLUMBIA       CLEAR     44  35  70 CALM      29.70F
SUMTER         PTCLDY    43  39  84 SW8       29.70R
FLORENCE       PTCLDY    42  40  92 SW7       29.72R
MYRTLE BEACH   MOCLDY    46  37  71 W9        29.76F
N MYRTLE BEACH LGT RAIN  47  43  86 NW7       29.76R

$$

GAZ063-065-086>088-099>101-113>116-118-119-134>141-150-090200-
...SOUTHEAST GEORGIA...

CITY           SKY/WX    TMP DP  RH WIND       PRES   REMARKS
SAVANNAH ARPT  RAIN      47  42  83 W14       29.79R
HUNTER AAF     LGT RAIN  46  45  93 W9        29.76S
FORT STEWART   CLOUDY    46  43  87 CALM      29.74F
STATESBORO     MOCLDY    51  35  54 W3        29.76F
SYLVANIA       PTCLDY    45  44  97 CALM      29.76S
CLAXTON        CLOUDY    47  45  94 CALM      29.77F

...CSRA...CENTRAL AND FAR SOUTHEAST GEORGIA...

CITY           SKY/WX    TMP DP  RH WIND       PRES   REMARKS
THOMSON        CLEAR     47  32  56 W12       29.79R
AUGUSTA-BUSH   CLEAR     39  34  82 SW6       29.73F WCI  35
AUGUSTA-DANIEL CLEAR     46  32  58 CALM      29.73S
SWAINSBORO     FAIR      41  36  81 CALM      29.76F
VIDALIA        CLEAR     43  37  81 CALM      29.77S
EASTMAN        FAIR      46  30  52 W5        29.81R
HAZLEHURST     FAIR      45  45 100 CALM      29.77R
ALMA           CLOUDY    47  43  86 W5        29.78R
WAYCROSS       CLOUDY    50  49  95 W5        29.79S
JESUP          CLOUDY    48  46  93 SW3       29.79R
BAXLEY         CLOUDY    48  45  87 CALM      29.78R
BRUNSWICK      CLOUDY    46  46 100 W5        29.80S
SAINT SIMONS   RAIN      48  47  96 NW10      29.79R FOG

$$

SCZ027-028-034-036>038-045-046-048>050-GAZ119-141-090200-
...LAKE AND SUPPLEMENTAL COASTAL OBSERVATIONS...

STATION/POSITION TIME  TEMP    WIND        PRES    WAVE   SWELL
                       AIR SEA DIR/SP/G            HT/PER HT/PER/DIR
                 (UTC) (F)     (DEG/KT/KT) (MB)    (FT/S) (FT/S/D)
WINYAH BAY       0045   46     300/  9     1007.0R
LAKE MURRAY      0000   46     280/  5/  8 1005.8R
ACE BASIN NERRS  0015   48     310/  4     1008.0R
FORT PULASKI     0100   48 53  260/ 13/ 16 1008.5R
SAPELO ISLAND    0100   48     310/ 14     1009.0R

$$

ANZ835-935-AMZ111-154-330-350-352-354-370-450-454-472-090200-
...C-MAN AND BUOY OBSERVATIONS...

STATION/POSITION TIME  TEMP    WIND        PRES    WAVE   SWELL
                       AIR SEA DIR/SP/G            HT/PER HT/PER/DIR
                 (UTC) (F)     (DEG/KT/KT) (MB)    (FT/S) (FT/S/D)
BUOY 41004       0050   61 66  230/ 25/ 31 1005.3S   9/ 7   3/16
BUOY 41008       0050   50 55  310/ 27/ 33 1007.4R   4/ 5   2/260/13
FOLLY BEACH CMAN 0100   47     310/  6/ 10 1007.9R
CAPERS NEARSHORE 0008   53     290/ 25/ 35 1006.7R
FRIPP NEARSHORE  0000   52     310/ 19/ 23 1007.4


STATION/POSITION TIME  TEMP    WIND        PRES    WAVE   SWELL
                       AIR SEA DIR/SP/G            HT/PER HT/PER/DIR
                 (UTC) (F)     (DEG/KT/KT) (MB)    (FT/S) (FT/S/D)
5E ST. MARYS GA  0021      55                N/A     4/17   2/100/17
FRYING PAN BUOY  0100   60 62  230/ 25/ 31 1005.8S
BUOY 41025       0050   58 74  220/ 14/ 19 1005.3F  11/14  10/ 50/14
CAPE LOOKOUT NC  NOT AVBL
BUOY 41002       0050   64 69  260/ 25/ 31   N/A    13/15  11/350/15
BUOY 41010       0020   66 72              1011.7F
ST AUGUSTINE FL  0100   58 58  230/  8/ 13 1009.8F


$$




USA.gov is the U.S. government's official web portal to all federal, state and local government web resources and services.